Preview of NWS' New Version of Forecast
This preview is not operational and should not be used for support decisions.

Regional Weather Roundup (RWR)

Issued by Boston / Norton, MA (BOX)

                            
000
ASUS41 KBOX 200710
RWRBOX

REGIONAL WEATHER ROUNDUP
NATIONAL WEATHER SERVICE BOSTON/NORTON MA
300 AM EDT MON MAY 20 2019

NOTE:  "FAIR" INDICATES FEW OR NO CLOUDS BELOW 12,000 FEET WITH NO 
SIGNIFICANT WEATHER AND/OR OBSTRUCTIONS TO VISIBILITY.

MAZALL-200800-
EASTERN MASSACHUSETTS
  
CITY           SKY/WX    TMP DP  RH WIND       PRES   REMARKS
BOSTON         TSTM      68  64  87 SW16      29.86F                  
BEVERLY        LGT RAIN  67  63  87 SW12      29.84F                  
LAWRENCE       LGT RAIN  67  63  87 S8        29.86F                  
BEDFORD        LGT RAIN  68  64  87 SW14      29.85R FOG              
BLUE HILL        N/A     64  64 100 SW17G30   29.88S                  
NORWOOD        MOCLDY    70  64  81 SW10      29.89R                  
MARSHFIELD     CLOUDY    68  66  94 SW14G35   29.88S                  
PLYMOUTH       CLOUDY    67  32  27 SW18G30   29.92S                  
TAUNTON        CLOUDY    64  62  93 SW10G20   29.92R FOG              
NEW BEDFORD    CLOUDY    63  63 100 SW15G24   29.92F                  
$$

MAZALL-200800-
CAPE COD AND THE ISLANDS
  
CITY           SKY/WX    TMP DP  RH WIND       PRES   REMARKS
FALMOUTH       CLOUDY    66  64  94 SW23G33   29.93F                  
HYANNIS        CLOUDY    62  59  90 SW18G29   29.92S                  
CHATHAM        CLOUDY    57  55  93 SW8       29.96R                  
PROVINCETOWN   CLOUDY    58  57  97 SW18G24   29.90S                  
NANTUCKET      MOCLDY    55  54  96 SW9       29.97R                  
MARTHAS VNYRD  CLOUDY    60  58  92 SW14G23   29.96R                  
$$
 
MAZALL-200800-
CENTRAL AND WESTERN MASSACHUSETTS
  
CITY           SKY/WX    TMP DP  RH WIND       PRES   REMARKS
WORCESTER      LGT RAIN  64  63  96 SW20      29.90R                  
FITCHBURG      LGT RAIN  70  62  76 S12       29.86F                  
ORANGE         LGT RAIN  67  63  87 S8        29.86F                  
SPRINGFIELD    LGT RAIN  67  66  98 SE10      29.84F                  
WESTFIELD      MOCLDY    66  64  93 S9        29.85F                  
NORTH ADAMS    FAIR      71  63  75 SW18G30   29.80F                  
PITTSFIELD     FAIR      68  61  78 S14G22    29.83F                  
$$
 
RIZALL-200800-
RHODE ISLAND
  
CITY           SKY/WX    TMP DP  RH WIND       PRES   REMARKS
PROVIDENCE     CLOUDY    66  64  93 W13       29.92S                  
NEWPORT        FOG       59  59 100 S10G18    29.92F VSB 1/2          
BLOCK ISLAND   FOG       59  58  96 SW17      29.94F VSB 1/2          
SMITHFIELD     LGT RAIN  66  64  93 W9        29.90F                  
WESTERLY       FOG       60  60 100 S7        29.93F VSB 1/2          
$$
 
CTZALL-200800-
CONNECTICUT
  
CITY           SKY/WX    TMP DP  RH WIND       PRES   REMARKS
BRADLEY INTL   CLOUDY    67  65  93 S10       29.86F FOG              
HARTFORD       LGT RAIN  67  65  93 S9        29.89S FOG              
BRIDGEPORT     LGT RAIN  63  63 100 CALM      29.89F FOG              
DANBURY        LGT RAIN  66  63  90 CALM      29.88F                  
GROTON         CLOUDY    63  59  87 NW3       29.93S FOG              
NEW HAVEN      LGT RAIN  65  63  93 S6        29.91F FOG              
CHESTER        LGT RAIN  64  64 100 SW8       29.94R                  
MERIDEN        RAIN      66  64  93 S7        29.91R FOG              
WILLIMANTIC    LGT RAIN  67  64  90 S5        29.90F                  
OXFORD         RAIN      66  64  93 VRB5      29.91F                  
$$

MEZ002-015-021-024-NHZ003-005-008-011-012-014-VTZ005-008-200800-
NORTHERN NEW ENGLAND
  
CITY           SKY/WX    TMP DP  RH WIND       PRES   REMARKS
PORTLAND ME    CLOUDY    52  49  89 NW3       29.87S                  
BANGOR ME      CLOUDY    48  47  96 NW5       29.90R                  
CONCORD NH     LGT RAIN  64  62  93 S8        29.82F                  
MANCHESTER NH  CLOUDY    66  64  93 S9        29.81F                  
NASHUA NH      LGT RAIN  66  66 100 VRB3      29.84F                  
PORTSMOUTH NH  LGT RAIN  59  57  94 SE6       29.83S                  
JAFFREY NH     MOCLDY    66  62  87 S12       29.85F                  
KEENE NH       MOCLDY    68  64  88 S8        29.81F                  
BURLINGTON VT  MOCLDY    66  63  90 SW6       29.72R                  
MT. WASHINGTON LGT RAIN  50  50 100 SW61G71     N/A  VSB 0            
$$

NYZ052-076-200800-
EASTERN NEW YORK
  
CITY           SKY/WX    TMP DP  RH WIND       PRES   REMARKS
ALBANY         CLOUDY    69  64  84 S15G22    29.77F                  
NEW YORK CITY  FAIR      70  65  84 S6        29.88F                  
$$
 
ANZALL-200800-
MARINE OBSERVATIONS
  
STATION/POSITION TIME  TEMP    WIND        PRES    VSBY  WAVE
                       AIR SEA DIR/SP/G                  HT/PER
                 (UTC) (F)     (DEG/KT/KT) (MB)    (MI)  (FT/S)
BOSTON BUOY      0650   59 50  200/ 12/ 16 1010.7F         2/ 3
BUZZARDS BAY     NOT AVBL
NANTUCKET SOUND  0650      53  220/ 14/ 17 1014.3R         2/ 3
MASS BAY-STELLWA NOT AVBL
ISLE OF SHOALS   0600   57     150/ 21/ 22 1009.8F
S OF BLOCK IS    0630      51                N/A           4/ 6
$$

......................KEY.........................
  SKY/WX - SKY CONDITION/PRESENT WEATHER
  TMP    - TEMPERATURE IN FAHRENHEIT
  DWPT   - DEWPOINT IN FAHRENHEIT
  RH     - RELATIVE HUMIDITY IN PERCENT
  WIND   - DIRECTION AND SPEED IN MPH
  PRES   - MEAN SEA LEVEL PRESSURE IN INCHES OF HG
  WCI    - WIND CHILL INDEX
  VSB    - VISIBILITY IN MILES
  HX     - HEAT INDEX
  TC     - TEMPERATURE IN CELSIUS
  VRB    - VARIABLE WIND DIRECTION
  N/A    - NOT AVAILABLE